星链-4536 (STARLINK-4536 )

导读

STARLINK-4536是美国SpaceX公司星链(Starlink)项目中的低轨通信卫星,于2022年9月11日发射入轨,属于星链第二代V1.5批次卫星,单星质量约295公斤,配备激光星间链路模块,可实现卫星间直接互联通信。 它运行在近地轨道,为全球偏远地区、海洋与航空场景提供低延迟高速宽带互联网接入,是星链规模星座组网的重要组成部分,支撑星链全球覆盖的卫星互联网服务,目前星链已在百余个国家开通商用服务。

基本信息
目录编号:
53783
目录名称:
STARLINK-4536
国际标识:
2022-111L
轨道中心:
EARTH
卫星名称:
星链-4536
卫星全名:
星链-4536 (STARLINK-4536 )
卫星状态:
在轨 (已飞行1375 天)
发射日期:
2022-09-11 UTC
国别 :
美国 (US)
星等 :
--
轨道信息
数据来源 国际轨道数据 AOE轨道数据
星历时间 2026-06-17T02:15:16+0800
16小时前
查看轨道信息
2026-06-16T03:00:00+0800
1天前
查看轨道信息
半长轴 6917.907km 6917.905km
偏心率 0.0001278 0.0001331
轨道倾角 53.160° 53.158°
近地点辐角 85.544° 78.285°
升交点赤经 189.200° 193.556°
平近点角 274.570° 55.878°
近地点 538.885km 538.847km
远地点 540.655km 540.689km
周期 95.438分钟 95.438分钟
每日圈数 15.088316 15.08832
详细信息
固有亮度:
5
最大亮度:
2.5
卫星平台:
Starlink v1.5
覆盖范围:
全球
运营商:
太空探索技术公司
运营商所在国:
美国
制造商(研发单位):
太空探索技术公司
制造商所在国:
美国
使用方式:
暂无
卫星简介
星链(Starlink)计划是由太空探索技术公司(SpaceX)提出的一个巨型低轨卫星互联网星座项目,计划在2019年至2024年间在太空搭建由约1.2万颗卫星组成的“星链”网络,其中1584颗将部署在地球上空550千米处的近地轨道,并从2020年开始工作。该卫星仍在工作。
2D轨道图
3D轨道图
轨道高度分析图
轨道倾角分析图
轨道综合分析图
查看轨道综合分析图